RH
9 9 9 10 10 10 11 11 11 11 11 12 12 12 13 13 13 14 14 15 15 15 16 16 16 17 17 17 17 18 18 18 17 17 17 16 16 15 15 15 14 14 13 13 12 12 12 12 12 11 11 11 11 11 10 10 11 11 12 15 17 20 22 24 25 27 33 39 43 47 50 46 41 37 36 36 35 30 25 21 21 24 28 32 33
7 7 7 7 8 8 8 8 8 8 8 8 8 9 9 9 9 9 10 10 10 11 11 12 12 12 13 13 13 14 14 14 14 14 13 13 13 13 12 12 11 11 10 10 10 10 10 10 10 9 9 9 9 9 9 9 9 9 10 10 11 13 15 18 20 22 25 30 35 39 42 41 37 33 31 31 32 32 30 25 21 19 21 25 30
7 7 7 7 7 7 7 7 7 7 7 7 7 7 7 7 7 7 7 7 7 8 8 8 9 9 9 9 10 10 10 10 10 10 11 10 10 10 10 9 9 9 9 9 9 9 9 10 10 9 9 9 9 8 8 8 8 8 8 8 8 9 10 11 13 16 19 23 27 32 35 35 34 31 27 25 25 27 28 27 25 21 18 18 23
7 7 7 7 7 7 7 7 7 7 6 6 6 6 6 6 6 6 6 6 6 6 7 7 7 7 7 8 8 8 8 9 9 9 9 9 9 9 9 8 8 8 8 8 9 10 10 11 10 10 10 9 9 9 8 8 8 7 7 7 7 7 7 8 9 10 12 16 20 25 29 30 31 30 28 25 22 21 22 23 23 23 20 17 17
7 7 7 7 7 7 7 7 7 7 7 7 6 6 6 6 6 6 6 6 6 6 6 6 6 6 7 7 7 7 7 7 8 8 8 8 8 8 8 8 8 7 7 8 8 9 9 10 10 10 9 9 9 9 8 8 7 7 7 6 6 6 6 6 7 7 8 10 13 16 21 24 26 27 28 26 24 22 20 19 19 20 20 19 17
7 7 7 7 7 7 7 7 7 7 7 7 7 7 7 7 6 6 6 6 6 6 6 6 6 6 6 6 6 6 7 7 7 7 7 7 7 7 7 7 7 7 7 7 7 7 8 8 8 8 8 8 8 7 7 7 7 6 6 6 6 6 6 6 6 6 7 7 8 10 12 16 19 22 24 24 24 23 22 20 19 18 18 18 17
6 6 6 6 6 6 6 6 6 7 7 6 7 7 7 7 7 7 7 7 6 6 6 6 6 6 6 5 6 6 6 6 6 6 6 6 6 6 6 6 6 6 6 6 6 6 6 6 7 7 6 6 6 6 6 6 6 6 6 6 6 5 5 5 5 6 6 6 6 7 8 9 12 14 17 19 20 21 22 21 20 19 18 18 17
5 5 5 5 5 5 5 5 5 5 5 5 5 6 6 6 6 6 6 6 6 6 6 6 6 6 6 6 6 6 6 6 6 5 5 6 6 6 6 6 6 6 6 6 6 6 6 6 5 5 5 5 5 5 5 5 5 5 5 5 5 5 5 5 5 5 5 5 5 6 7 7 8 9 11 13 15 16 18 19 19 18 18 18 18
5 5 5 5 5 5 5 5 5 5 5 5 5 5 5 5 5 5 5 5 5 5 5 6 6 6 6 6 6 6 6 6 6 6 5 5 5 5 5 5 5 5 5 5 5 5 5 5 5 5 5 5 5 5 5 5 4 4 4 4 4 4 4 4 5 5 5 5 5 5 6 6 6 7 7 8 9 11 12 14 15 16 16 16 16
5 5 5 5 5 5 5 5 5 5 5 5 5 5 5 5 5 5 5 5 5 5 4 4 5 5 5 5 5 5 6 6 6 6 6 6 6 5 6 6 6 6 6 6 6 6 5 5 5 5 5 5 5 5 4 4 4 4 4 4 4 4 4 4 4 4 4 4 4 4 5 5 5 6 6 6 7 7 8 8 10 11 12 13 13
5 5 5 5 5 5 5 5 5 5 5 5 5 5 5 5 5 5 5 5 4 4 5 4 4 4 4 4 4 4 4 5 5 5 5 5 5 5 5 5 6 6 6 6 6 6 6 6 5 5 5 5 5 5 5 4 4 4 4 4 4 3 4 4 4 4 4 4 4 4 4 4 5 5 5 5 6 6 6 6 7 7 8 9 10
5 4 4 4 4 4 4 4 4 4 4 4 4 5 5 5 5 5 5 5 5 4 4 4 4 4 4 4 4 4 4 4 4 4 4 4 4 4 4 4 5 5 5 5 5 5 5 5 5 5 5 5 5 4 4 4 4 4 4 4 4 4 4 4 4 3 3 3 3 4 4 4 4 4 4 4 5 5 5 5 6 6 5 6 7
4 4 4 4 4 4 4 4 4 4 4 4 4 4 4 4 4 4 4 4 4 5 4 4 4 4 4 4 4 4 4 4 4 4 4 4 3 3 3 3 4 4 4 4 4 4 4 4 4 4 4 4 4 4 4 4 4 4 4 4 4 4 4 3 4 3 3 3 3 3 4 4 4 4 4 4 4 4 5 5 5 5 5 5 5
4 4 4 4 4 4 4 4 4 4 4 4 4 4 4 4 4 4 4 4 4 4 4 4 4 4 4 4 4 4 4 4 4 4 3 3 3 3 3 3 4 4 4 4 4 4 4 4 4 4 4 4 3 3 3 3 3 3 3 3 3 3 4 3 4 4 3 3 3 3 3 3 4 4 3 4 4 4 4 4 4 4 4 4 5
4 4 4 4 4 4 4 4 4 4 4 4 4 4 4 4 4 4 4 4 4 4 4 4 4 4 4 4 4 4 4 4 4 3 3 3 3 3 3 3 4 4 4 4 4 4 4 4 4 4 4 4 3 4 3 3 3 2 2 2 2 3 3 3 3 3 3 3 3 4 4 3 3 4 3 3 3 3 4 4 4 4 4 4 4
5 5 4 4 5 4 4 5 4 4 4 4 4 4 4 4 4 4 4 4 4 4 4 4 4 4 4 3 4 4 4 3 3 3 3 3 3 3 3 3 3 3 4 4 3 4 4 4 4 3 4 4 3 3 3 3 3 3 2 3 2 2 3 3 3 3 2 3 3 3 3 3 3 3 3 3 3 3 3 3 3 4 4 4 4
5 5 5 5 5 5 4 4 4 4 4 4 4 4 4 4 4 4 4 4 4 4 4 4 4 4 4 3 3 3 3 3 3 3 3 3 3 3 3 3 3 3 4 3 3 4 3 3 4 3 3 3 3 3 3 3 3 3 3 3 2 2 3 3 3 3 2 2 3 2 3 3 3 3 3 3 3 3 3 3 3 4 4 4 4
5 5 5 5 4 4 4 4 4 4 4 4 4 4 4 4 4 4 4 4 4 3 4 4 4 4 4 3 3 3 3 3 3 3 3 3 3 3 3 3 3 3 3 3 3 3 3 3 3 3 3 3 3 3 3 3 3 3 3 3 3 2 3 3 3 3 3 3 3 3 3 2 2 3 3 3 3 3 3 4 4 4 4 4 4
5 4 4 4 4 4 4 4 4 4 4 4 4 3 4 4 3 3 3 3 4 3 3 4 3 3 3 3 3 3 3 3 3 3 3 3 3 3 3 3 3 3 3 3 3 3 3 3 3 2 3 3 3 3 3 3 3 3 3 3 3 3 3 3 3 3 3 3 3 3 3 3 2 2 2 2 2 2 3 3 3 4 4 4 4
4 4 4 4 4 4 4 4 4 4 4 4 4 3 4 4 3 4 3 3 3 3 3 3 3 3 3 3 3 3 3 3 3 3 3 3 3 3 3 3 3 3 3 3 3 3 3 3 3 2 2 3 3 3 3 3 3 3 3 3 3 3 3 2 3 3 3 3 3 3 3 3 3 3 3 2 2 2 2 2 2 3 3 3 3
4 4 4 4 4 4 4 4 4 4 4 4 4 3 4 4 3 4 3 3 3 3 3 3 3 3 3 3 2 3 2 3 3 3 3 3 3 3 3 3 3 3 3 3 3 3 3 3 3 3 3 3 3 3 2 2 2 2 3 3 3 3 3 2 3 3 3 3 3 3 3 3 3 3 3 3 3 3 2 2 2 2 2 3 3
4 4 4 4 4 4 4 4 4 4 4 4 4 4 4 4 4 4 4 4 4 3 3 3 3 3 3 3 2 2 2 2 3 3 3 3 3 3 3 3 3 3 3 3 3 3 3 3 3 3 3 3 3 3 2 2 2 2 2 3 3 3 2 3 3 3 3 3 3 3 3 3 3 3 3 3 3 3 3 3 2 3 2 2 2
4 4 4 4 4 4 4 4 4 4 4 4 4 4 4 4 4 4 4 4 4 4 3 3 3 3 3 3 2 2 2 2 3 3 3 3 3 3 3 3 3 3 3 3 3 3 3 3 3 3 3 3 3 3 3 2 3 3 3 2 3 3 3 3 3 3 3 3 3 3 3 3 3 3 3 3 3 3 3 3 2 3 3 2 2
4 4 4 4 4 4 4 4 4 4 4 4 4 4 4 4 4 4 4 4 4 4 4 3 3 3 3 3 2 2 2 3 3 3 3 3 3 3 3 3 2 3 3 3 3 3 3 3 3 3 3 3 3 3 3 3 3 3 3 3 3 3 3 3 3 3 3 3 3 3 3 3 3 3 3 3 3 3 3 3 3 3 3 2 2
4 4 4 4 4 4 4 4 4 4 4 4 4 4 4 4 4 4 4 4 4 4 4 4 3 3 3 3 2 2 3 3 3 3 4 4 3 3 3 3 2 3 3 3 3 3 3 3 3 3 3 3 3 3 3 3 3 3 3 3 3 3 3 3 3 3 3 3 3 3 3 3 3 3 3 2 3 3 3 3 3 3 3 3 3
4 4 4 4 4 4 4 4 4 4 4 4 4 4 4 4 4 4 4 4 4 4 4 4 4 3 3 3 2 2 2 3 3 4 4 4 4 3 2 3 3 3 3 3 3 3 3 3 3 3 3 3 3 3 3 3 3 3 3 3 3 3 3 3 3 3 3 3 3 2 3 3 2 2 3 2 3 3 3 3 3 3 3 3 3
4 4 4 4 4 4 4 4 4 4 4 4 4 4 4 4 4 4 4 4 4 4 4 4 4 3 3 3 3 2 3 3 3 4 4 4 4 3 3 3 3 3 3 3 3 3 3 3 3 3 3 3 3 3 3 3 3 3 3 3 3 3 3 3 3 3 3 2 3 2 2 3 2 2 3 3 3 3 3 3 3 3 3 3 3
4 5 5 5 5 5 4 4 4 4 4 4 4 4 4 4 5 4 4 5 4 4 4 4 4 3 3 3 3 3 3 3 3 4 4 4 4 3 3 3 3 3 3 3 3 3 3 3 3 3 3 3 3 3 3 3 3 3 3 4 3 3 3 3 3 3 3 2 3 3 3 3 3 3 3 3 3 3 3 4 4 3 3 3 3
4 5 5 5 5 4 4 4 4 4 4 4 4 4 4 4 5 4 4 4 4 4 4 3 4 3 3 3 3 3 3 3 3 4 4 4 4 3 3 4 3 3 3 3 3 3 3 3 3 3 3 3 3 3 3 3 3 3 3 4 4 3 3 3 3 3 3 3 3 3 3 3 3 3 3 3 3 4 4 4 4 4 4 4 4
5 5 5 5 5 5 4 4 4 4 4 4 4 4 4 4 5 5 5 4 4 4 4 4 4 3 3 3 3 3 3 3 3 4 4 4 4 3 3 4 3 3 3 3 3 3 3 3 3 3 3 3 3 3 3 3 3 4 4 4 4 3 3 3 3 3 3 3 3 3 3 3 3 3 3 4 3 4 4 4 4 4 4 4 4
5 5 5 5 5 5 4 4 4 4 4 4 4 4 4 3 4 4 5 5 4 4 4 4 4 3 3 3 3 3 3 3 3 4 4 4 4 4 3 3 3 3 3 3 3 3 3 3 3 3 3 3 3 3 3 3 3 4 4 4 4 3 3 3 3 3 3 3 3 3 3 3 3 3 3 3 4 4 4 4 4 4 4 4 4
5 5 5 5 5 5 5 5 4 4 4 4 4 4 4 4 3 3 4 5 5 5 4 4 4 4 3 3 3 3 3 3 3 4 4 4 4 4 4 3 3 3 4 3 3 3 3 3 4 3 3 3 3 3 3 3 4 4 4 4 4 3 3 3 3 3 4 4 4 4 3 3 3 3 3 3 3 4 4 4 4 5 5 5 4
5 5 5 5 5 5 5 5 5 5 4 4 4 4 4 4 4 3 3 4 5 5 5 4 4 4 4 3 3 3 3 3 3 4 4 4 4 4 4 4 3 4 4 4 3 3 3 4 3 3 4 3 3 4 4 3 4 4 4 4 4 3 3 3 3 4 4 4 4 3 3 3 3 3 3 4 4 4 4 4 4 5 5 5 5
5 5 5 5 5 5 5 5 5 5 5 4 4 4 4 4 4 4 3 3 4 5 5 5 4 4 4 3 3 3 3 3 3 4 4 4 4 4 4 4 4 4 4 4 4 3 3 4 4 4 4 4 4 4 4 4 4 4 4 4 4 4 4 3 4 4 4 4 4 4 3 4 4 4 4 4 4 4 4 4 5 5 5 5 5
5 5 5 5 5 5 5 5 5 5 5 5 4 4 4 4 4 4 4 3 3 4 4 5 5 4 4 4 4 3 3 3 3 4 4 4 4 4 3 3 4 4 4 4 4 4 3 4 4 4 4 4 4 4 4 4 4 4 4 4 4 4 4 4 4 4 4 4 4 4 4 4 4 4 4 4 4 4 4 5 5 5 5 6 6
5 5 5 5 5 5 5 5 5 5 4 5 4 4 5 4 4 4 4 4 4 4 4 4 5 5 4 4 4 4 4 3 3 3 4 4 4 4 4 3 4 4 4 4 4 4 4 4 4 4 4 4 4 4 4 4 4 4 4 4 4 4 4 4 4 4 4 4 4 4 4 4 4 4 4 4 4 5 5 5 6 6 5 6 6
5 5 5 5 5 5 5 5 5 4 4 5 4 4 4 4 4 4 4 4 4 4 4 4 4 5 5 4 4 4 4 4 4 4 3 4 4 4 4 4 4 4 5 4 4 4 4 4 4 4 4 4 4 4 4 4 4 4 4 4 4 4 4 4 4 4 4 4 4 4 4 4 4 4 5 5 5 5 5 5 6 6 6 6 6
5 5 5 5 5 5 5 5 5 4 4 4 4 4 4 4 4 4 4 4 4 4 4 4 4 4 5 4 4 4 4 4 4 4 4 4 4 4 4 4 4 4 5 5 4 4 4 4 4 4 4 4 4 4 4 4 4 4 4 4 4 4 4 4 4 5 5 4 4 4 4 4 5 5 5 5 5 5 6 6 6 6 6 6 6
5 5 5 5 5 5 5 5 5 5 5 4 4 4 4 4 4 4 4 4 4 4 4 4 4 4 5 5 4 4 4 4 4 4 4 4 4 4 4 4 4 4 5 5 5 4 4 4 4 4 4 4 4 4 4 4 4 4 4 5 5 4 5 5 4 4 5 4 4 4 4 4 5 5 5 6 6 6 7 7 7 6 6 6 6
5 5 5 5 5 5 5 5 5 5 5 5 4 4 4 4 4 4 4 4 4 4 4 4 4 4 4 4 5 4 4 4 4 4 4 4 4 4 4 4 4 5 5 5 5 4 4 4 4 4 4 4 4 5 5 4 5 5 4 5 5 5 5 5 5 5 5 5 4 5 5 5 5 6 6 6 7 7 7 7 6 7 7 6 6
5 5 5 5 5 5 4 5 5 4 5 5 4 4 4 4 4 4 4 4 4 4 4 4 4 4 4 4 5 5 4 4 4 4 4 4 4 4 4 4 4 4 5 5 5 4 4 4 4 4 4 5 4 5 5 4 5 5 5 5 5 5 5 5 5 5 5 5 5 5 5 5 5 6 7 7 7 7 7 7 7 7 7 7 7
5 6 5 5 5 5 4 5 5 5 5 5 5 4 4 4 4 4 4 4 4 4 5 4 4 4 5 4 4 5 5 4 4 4 4 4 4 4 4 4 4 4 5 5 5 4 4 4 4 4 4 5 5 5 5 5 5 5 5 5 5 5 5 5 5 5 5 5 5 5 5 6 6 7 7 7 7 7 7 7 7 8 8 7 7
5 6 6 5 5 5 5 5 5 5 5 5 5 5 5 4 5 5 4 4 4 4 4 5 5 4 5 5 4 5 5 5 4 4 4 4 4 4 4 4 4 4 5 5 5 5 4 4 4 4 4 5 5 5 5 5 5 5 5 5 5 5 5 5 5 5 5 5 5 6 6 7 7 7 7 7 7 8 8 8 8 8 8 7 7
6 6 6 5 5 5 5 5 5 5 5 5 5 5 5 4 5 5 4 4 5 4 4 5 5 5 5 5 4 4 5 5 5 5 4 4 4 4 4 4 4 4 5 5 5 5 4 4 4 4 4 5 5 5 5 5 5 5 5 5 5 5 5 5 5 5 5 6 6 7 7 7 7 7 7 8 8 8 8 8 8 8 8 8 8
6 6 6 5 6 5 5 5 5 5 5 5 5 5 5 5 5 5 5 4 4 5 5 5 5 5 5 5 5 4 5 5 5 5 4 4 5 4 4 4 4 4 5 5 5 5 5 4 4 4 5 5 5 5 5 5 5 5 5 6 6 6 6 5 5 6 6 7 7 7 7 8 8 7 8 8 8 8 8 8 8 8 8 8 8
6 6 6 5 6 5 5 5 5 5 5 5 5 5 5 5 5 5 5 5 4 4 5 5 5 5 5 5 5 5 5 4 5 5 5 4 5 4 4 4 4 4 5 5 5 5 5 4 4 4 5 5 5 5 5 5 5 5 5 6 6 6 6 6 6 6 6 7 8 8 8 8 8 8 8 8 8 8 8 8 8 9 9 9 8
6 6 6 5 6 6 5 5 5 5 5 5 5 5 5 5 5 5 5 5 4 4 5 5 5 5 5 5 5 5 5 5 5 5 5 4 5 5 4 4 4 4 5 5 5 5 5 4 4 4 5 5 5 6 6 6 6 6 6 6 6 6 6 6 6 6 7 8 8 8 8 8 8 8 8 8 8 8 8 8 8 8 8 9 9
6 6 6 5 5 6 5 5 5 5 5 5 5 5 5 6 5 5 5 5 5 5 5 5 5 5 5 5 5 4 5 5 5 5 5 5 4 5 4 4 4 4 5 5 5 5 5 5 4 4 5 5 6 6 6 6 6 6 6 6 6 6 6 7 7 7 8 8 8 8 8 9 9 9 9 8 8 8 8 8 8 9 9 9 10
6 6 6 6 5 5 5 5 5 5 5 5 5 5 5 6 6 6 5 5 5 5 4 5 5 5 5 5 5 5 5 5 5 5 5 5 5 4 4 4 4 4 5 5 5 5 5 5 4 4 5 5 6 6 6 6 6 6 6 6 6 6 6 7 7 8 8 9 8 8 8 9 9 9 9 8 8 7 7 7 8 9 10 10 11
6 6 6 5 5 5 5 5 5 5 5 5 5 5 5 5 6 6 6 5 5 5 5 5 5 5 5 5 5 5 5 5 5 5 5 5 5 5 4 4 4 4 5 5 5 5 5 5 5 5 5 5 6 6 6 6 6 6 6 6 6 7 7 7 8 8 9 9 9 9 9 9 9 9 8 8 8 7 7 8 8 9 10 11 11
6 6 6 5 5 5 5 5 5 5 5 5 5 5 5 5 6 6 6 6 5 5 5 5 5 5 5 5 5 5 5 5 5 5 5 5 5 5 4 4 4 4 5 5 5 5 5 5 5 5 5 5 6 6 6 6 6 6 6 6 6 7 7 7 8 9 9 9 9 9 9 9 9 9 9 8 8 8 8 8 9 10 11 11 11
Wind_Speed
117 118 118 119 120 121 122 123 124 124 125 125 125 126 126 126 126 126 126 127 127 127 127 127 127 128 128 129 129 129 129 129 129 129 129 128 128 127 127 126 125 125 124 123 123 122 121 121 120 120 119 119 119 119 120 121 123 125 127 129 132 134 136 137 137 134 135 138 140 140 142 144 142 141 140 138 138 138 137 137 136 135 135 134 134
113 114 115 116 116 117 118 119 120 121 122 122 122 122 123 123 123 123 123 124 124 124 124 124 125 125 125 126 126 126 126 127 127 126 126 126 126 125 125 124 124 123 122 122 121 121 120 120 119 119 118 118 117 118 118 119 121 122 124 127 129 132 136 138 139 138 138 141 144 144 146 148 147 146 145 144 143 142 142 141 139 138 136 136 136
110 111 111 112 113 113 114 115 116 117 117 118 118 118 119 119 119 119 119 120 120 120 120 121 121 121 122 122 122 123 123 123 123 123 123 123 123 123 122 122 122 121 121 120 120 119 118 118 117 117 117 116 116 116 117 118 119 120 122 124 127 129 133 136 138 139 139 142 145 147 149 152 152 150 150 149 147 146 146 145 144 142 139 138 138
107 108 109 109 110 110 111 111 112 113 113 113 114 114 114 114 114 114 114 115 115 116 116 116 117 117 117 118 118 119 119 119 119 120 120 120 120 120 119 119 119 118 118 118 117 117 116 116 116 116 116 116 116 116 117 117 118 119 119 121 124 126 129 132 134 136 138 141 144 148 151 154 155 154 153 152 151 150 149 148 148 147 144 141 139
103 104 105 106 107 107 108 109 109 110 110 110 111 111 111 111 111 111 111 111 111 112 112 112 113 113 114 114 115 115 115 116 116 116 117 117 116 117 117 117 117 116 116 116 115 115 115 115 115 116 116 115 116 116 117 117 117 118 118 119 120 122 123 126 129 132 134 137 141 146 150 153 156 156 156 156 154 153 152 151 150 150 149 146 143
99 99 100 101 102 103 104 105 106 107 107 107 108 108 109 109 109 109 109 109 109 109 109 109 110 110 110 111 111 112 112 113 113 114 114 114 114 114 115 115 115 114 114 114 114 114 114 114 114 115 115 115 116 116 116 117 117 117 117 117 118 119 120 121 123 126 129 131 135 140 146 150 154 156 157 157 157 156 155 153 152 151 150 150 148
94 94 95 96 97 98 99 100 101 102 103 103 104 104 105 105 106 106 106 106 106 106 107 107 107 107 107 108 108 109 109 110 111 111 111 112 112 112 112 112 112 112 112 113 113 113 113 114 114 114 115 115 115 115 116 116 116 116 116 117 117 118 118 118 120 122 123 125 128 133 139 144 149 152 155 157 157 157 156 156 154 152 151 151 151
90 90 91 92 92 93 94 95 96 97 98 98 99 100 100 101 101 101 101 102 102 102 102 103 103 103 104 104 104 105 105 106 107 108 108 108 109 109 109 110 109 110 110 110 111 111 112 112 113 113 113 114 114 115 115 115 115 115 115 116 117 117 116 117 118 119 120 121 123 126 131 136 141 145 149 153 155 156 156 157 157 154 152 151 151
86 86 87 87 88 89 89 91 92 93 93 94 95 95 96 97 97 97 97 98 98 98 98 99 99 99 100 100 100 101 101 102 103 104 104 105 105 106 106 106 106 106 107 108 108 109 110 110 111 111 112 112 113 113 114 114 114 114 114 115 115 115 115 115 116 117 118 118 119 122 125 129 133 137 141 146 149 152 153 154 155 155 153 152 150
83 83 83 83 83 84 84 85 86 87 88 88 89 90 91 92 93 93 94 94 95 95 95 96 96 96 97 97 97 97 98 99 100 100 101 101 102 102 102 102 103 103 104 105 106 107 107 108 108 109 110 110 111 111 112 112 113 113 112 113 113 113 113 113 114 115 116 117 118 120 121 123 126 130 133 137 141 144 147 149 150 151 151 152 150
80 80 80 80 80 80 80 81 82 82 83 83 84 85 86 86 87 87 88 89 90 91 91 92 93 93 93 94 94 95 96 96 97 97 98 98 98 98 98 99 99 100 101 102 103 104 105 105 106 106 107 108 108 109 109 109 110 110 110 110 111 111 110 111 111 112 114 115 116 118 119 120 122 125 127 129 132 136 139 141 143 145 146 147 148
78 78 78 78 78 78 78 79 79 80 80 80 81 81 82 82 82 83 83 84 85 86 86 87 88 89 89 90 90 91 93 94 94 94 95 95 95 94 94 94 95 96 97 98 99 100 101 102 102 102 103 104 105 105 105 106 106 107 107 107 108 108 108 108 109 110 111 111 113 114 116 117 120 122 122 123 125 128 130 133 135 137 137 138 140
77 76 76 76 76 76 77 77 78 78 78 78 79 79 79 79 79 79 79 80 81 82 83 83 84 84 84 85 86 87 89 90 91 91 91 92 92 91 90 90 91 92 93 94 95 96 97 97 97 97 98 99 100 101 102 103 103 103 104 104 105 105 106 106 106 107 108 108 109 110 113 115 117 118 119 119 121 122 124 126 127 129 129 129 132
75 75 75 75 75 75 75 76 76 77 77 77 77 78 77 77 77 77 77 78 79 79 80 80 81 81 81 81 82 83 85 86 86 87 87 87 88 88 87 86 87 88 89 91 92 92 92 93 93 94 95 96 97 99 100 101 101 101 100 100 101 102 103 103 103 104 105 106 106 107 110 112 113 114 115 116 116 117 119 120 121 122 123 124 125
74 74 74 74 74 74 74 75 75 75 75 75 75 76 76 75 75 75 75 76 77 77 77 78 78 79 79 79 79 80 82 83 82 83 83 83 83 83 82 82 83 84 85 87 89 89 89 90 90 91 92 93 94 96 98 98 98 97 96 96 96 97 99 100 102 102 103 103 105 106 108 109 110 111 112 112 112 113 114 115 116 116 117 118 118
73 73 73 73 73 73 73 74 74 74 74 74 74 74 74 74 73 73 74 74 75 75 75 75 76 76 77 77 76 77 79 80 79 79 80 80 79 78 78 78 79 80 81 83 84 85 85 87 88 89 89 90 91 93 95 95 94 92 92 92 93 93 93 96 99 100 100 101 103 104 106 107 107 108 109 109 109 109 109 109 109 110 111 112 112
73 73 72 72 72 72 72 72 72 73 73 73 73 73 73 73 72 72 72 73 73 74 73 73 74 75 75 75 74 75 76 77 76 76 76 76 75 75 75 75 76 76 78 79 79 80 81 83 85 86 86 86 88 90 91 91 89 88 89 89 89 89 89 91 94 96 97 98 100 101 103 103 104 105 105 106 106 106 105 105 105 106 108 109 110
71 71 71 71 71 71 71 71 70 71 71 71 72 72 71 71 71 71 71 71 72 72 72 72 73 73 73 73 73 73 74 74 73 72 72 72 72 71 72 72 73 74 75 75 75 75 77 79 81 82 81 81 82 85 87 87 85 85 86 86 85 85 86 88 90 92 94 94 96 98 99 100 101 102 102 103 103 103 102 102 103 104 105 107 108
69 69 69 68 69 69 69 68 68 68 69 69 69 69 69 69 69 69 69 69 70 70 70 70 71 72 72 72 72 71 71 71 70 69 69 70 69 69 68 69 71 72 72 71 71 73 75 76 77 77 75 74 77 80 83 82 81 81 82 82 81 83 84 85 87 89 90 91 91 93 94 95 97 98 99 99 99 100 100 100 101 102 102 104 105
67 67 67 66 66 66 66 66 66 66 66 67 67 67 66 66 67 66 66 67 67 68 68 68 69 71 71 71 70 69 68 67 67 66 66 68 68 67 66 67 68 68 67 67 69 71 72 72 73 73 70 70 74 78 79 78 77 76 77 77 78 80 82 82 84 85 86 86 87 89 90 91 93 94 94 95 95 96 97 98 98 99 100 101 102
65 65 65 65 65 65 64 64 63 63 64 64 64 64 63 63 64 64 64 65 65 66 66 66 67 69 69 69 68 66 65 64 64 64 65 66 66 65 64 66 66 64 63 65 66 67 68 68 69 69 67 67 71 75 75 74 72 72 73 74 76 78 78 78 80 81 82 82 83 84 86 88 89 90 91 91 91 93 94 95 96 97 98 99 100
63 63 63 63 63 62 62 61 61 61 61 61 62 61 61 60 60 61 62 63 64 64 64 65 66 67 68 67 65 63 61 60 60 61 63 64 64 64 63 64 63 61 60 62 63 63 64 65 66 66 65 66 69 71 71 70 69 69 71 72 74 75 74 75 76 77 77 79 80 81 82 84 86 87 88 88 89 90 91 92 93 94 95 96 97
62 62 61 61 61 60 60 59 59 59 59 60 60 60 59 58 58 58 59 60 62 62 63 63 64 65 65 65 62 59 58 57 56 57 60 63 63 63 62 61 60 58 58 59 60 61 62 63 63 62 62 63 66 67 67 67 66 67 69 70 71 72 72 72 73 73 74 76 77 78 79 81 83 84 85 85 86 87 87 88 89 90 91 93 93
61 60 60 60 59 59 58 58 57 57 57 58 58 58 57 57 57 57 57 59 60 61 61 61 62 63 63 62 59 56 54 54 53 54 57 61 63 62 61 59 57 55 55 56 58 60 61 60 60 60 60 61 63 63 63 64 64 65 67 68 69 69 69 70 71 71 73 74 75 75 77 79 80 82 83 82 82 83 83 84 85 86 87 88 89
61 60 60 59 59 58 57 57 56 55 55 55 55 55 55 55 55 55 56 57 58 59 60 60 60 60 60 59 57 54 51 50 50 51 54 59 61 61 59 57 54 53 53 55 56 58 58 57 57 57 58 59 60 60 60 61 62 62 64 65 66 67 67 68 69 70 71 73 73 74 75 77 78 79 79 79 78 79 79 80 82 83 84 83 84
61 60 60 59 59 58 58 57 56 55 54 54 53 53 52 53 53 53 54 56 57 57 58 58 58 58 58 56 55 53 49 47 47 49 51 56 59 59 56 54 52 52 52 52 53 55 55 55 54 54 55 57 58 58 58 59 59 59 61 62 64 65 65 66 67 69 70 71 72 72 73 74 75 76 75 75 74 75 76 77 79 80 80 80 81
60 60 60 60 59 59 58 57 57 56 55 54 53 51 50 50 50 51 52 54 55 55 56 56 56 56 56 54 53 52 48 45 45 47 49 53 56 56 53 51 52 51 50 49 50 53 53 52 52 52 53 55 56 56 56 56 57 57 58 60 62 63 63 64 65 67 68 68 69 69 70 71 71 71 71 71 71 72 73 75 76 78 78 77 78
59 59 59 59 59 58 57 56 56 56 55 54 52 50 48 47 48 48 49 52 53 54 54 54 53 54 53 51 50 50 47 43 42 44 47 51 53 52 50 50 51 49 46 46 49 51 50 49 49 50 50 52 53 54 54 54 55 56 57 58 60 61 62 62 63 64 65 65 66 66 66 66 66 67 67 68 68 69 71 73 75 76 75 74 74
59 58 58 57 57 57 56 55 55 54 54 53 52 49 45 44 45 47 48 49 50 52 53 52 52 51 51 49 48 48 45 41 40 42 45 49 51 49 48 49 49 46 43 45 48 48 46 46 47 48 48 50 51 52 52 52 53 54 55 57 58 60 60 61 61 62 62 63 63 63 63 63 64 64 65 66 67 68 69 71 73 73 72 71 71
59 58 57 56 56 56 56 55 54 53 53 52 52 50 46 41 39 42 46 49 49 49 50 51 51 50 49 47 46 45 43 40 37 39 43 46 48 47 47 48 46 42 41 45 46 45 44 45 45 46 47 48 49 49 49 50 51 52 53 55 57 59 59 60 60 60 60 60 61 61 61 62 62 63 64 65 66 66 67 69 70 69 68 68 70
58 58 57 56 55 55 55 55 54 53 52 51 50 50 49 44 37 35 39 45 49 49 48 48 49 49 48 46 43 42 41 38 36 36 39 43 45 46 46 45 42 39 40 44 44 42 42 43 43 44 45 45 46 47 48 48 49 50 52 54 56 57 58 58 58 57 57 58 59 60 60 60 61 62 63 64 64 65 66 67 67 66 66 68 69
58 57 57 56 55 54 54 54 53 52 51 50 49 49 49 48 42 36 32 35 42 47 48 46 45 46 47 46 43 39 37 36 35 34 36 39 42 45 46 43 39 37 39 42 42 41 40 41 42 42 43 44 45 45 46 47 48 49 51 53 54 55 56 56 55 55 55 56 58 59 59 59 60 60 61 62 63 63 63 64 64 64 66 67 69
58 57 57 56 55 54 54 54 53 52 50 49 48 47 47 47 46 42 36 31 32 38 44 46 45 43 43 44 43 40 36 34 33 33 34 36 39 43 44 41 38 37 38 39 40 40 39 40 40 41 41 42 43 44 45 46 47 48 49 51 52 54 54 54 53 53 53 55 57 57 57 58 58 59 60 60 60 61 61 62 63 63 65 66 67
58 57 56 56 55 54 53 53 52 51 49 47 46 46 45 45 45 45 42 37 31 30 34 40 44 44 43 41 40 38 36 33 31 31 33 34 36 39 40 39 37 36 37 38 38 38 38 38 39 39 39 40 41 43 44 45 46 47 48 49 51 51 52 52 51 52 52 54 56 56 56 56 57 57 58 58 59 60 60 61 62 63 64 65 65
58 57 56 56 55 54 53 52 51 50 49 47 45 44 44 44 43 43 43 41 37 33 30 32 36 42 43 42 40 37 34 32 30 30 31 33 34 36 37 36 34 35 36 36 37 37 37 37 37 38 38 39 40 42 43 44 45 46 47 48 49 50 50 50 50 50 51 53 54 55 55 55 56 56 56 57 58 59 60 60 61 62 63 63 63
58 57 56 56 55 54 53 51 51 50 48 47 45 43 42 42 42 42 42 41 40 37 33 30 31 35 39 41 40 38 35 32 30 29 29 31 33 34 34 33 32 33 34 35 35 35 36 36 37 37 37 38 39 40 41 42 43 44 45 46 47 48 48 48 49 49 50 52 53 54 54 54 54 54 54 56 57 58 59 59 60 60 61 62 63
58 57 56 55 55 54 53 52 50 49 48 46 45 43 42 41 41 41 41 41 40 38 36 33 31 31 34 37 38 37 35 33 31 29 28 29 30 32 32 32 30 31 32 33 34 34 34 35 36 36 36 37 38 39 40 41 42 43 44 45 45 46 46 47 48 49 50 51 52 53 53 52 52 52 54 55 56 57 57 58 58 59 60 61 62
59 57 56 55 54 53 53 52 51 50 48 47 45 43 42 41 40 40 40 40 40 39 37 34 32 30 31 33 35 35 34 32 31 30 29 28 28 29 30 30 29 29 30 31 32 32 33 33 34 34 35 36 36 37 38 40 41 42 43 43 44 44 45 46 47 48 49 50 51 52 51 51 51 52 53 54 55 55 55 56 56 58 59 60 61
60 59 57 56 55 54 52 52 51 50 49 47 45 43 42 41 40 39 39 38 38 38 37 35 33 31 30 31 32 34 33 31 29 29 29 29 28 27 28 28 28 28 29 30 31 31 31 32 32 33 33 34 35 36 37 38 40 41 41 42 42 43 44 45 46 47 48 49 50 50 50 50 51 52 52 52 53 53 53 54 55 56 57 59 59
61 59 58 57 56 54 53 51 50 49 48 47 46 44 42 41 40 40 39 38 37 37 36 35 33 31 31 30 30 31 32 31 29 27 27 29 29 27 26 26 27 27 28 29 30 30 30 31 31 31 32 33 34 35 36 37 38 39 40 41 41 42 43 44 45 46 47 47 48 49 50 50 51 51 50 50 51 51 52 53 54 55 56 57 57
61 60 59 58 57 55 54 52 50 49 48 47 46 44 42 41 40 40 39 38 37 36 36 35 33 31 30 30 29 29 30 30 29 27 26 27 28 27 26 25 26 26 27 28 29 29 29 29 29 30 30 31 32 34 35 36 37 38 39 40 40 41 42 43 44 45 46 46 47 48 48 49 49 49 49 49 49 50 51 52 53 53 55 55 55
61 60 60 59 57 56 54 52 51 49 47 46 45 45 43 42 40 40 39 38 37 35 34 34 33 31 29 29 28 28 28 29 29 27 25 25 27 27 26 25 25 26 26 27 28 28 28 28 28 29 29 30 31 33 34 35 36 37 38 39 39 41 42 42 43 44 44 45 46 46 47 48 48 48 47 48 48 49 50 51 52 53 54 54 55
61 60 60 59 57 56 55 53 52 50 48 46 45 44 44 42 41 40 39 38 37 36 34 33 32 31 29 28 28 27 27 28 28 27 25 24 25 26 26 25 25 25 26 26 27 27 27 27 28 28 28 30 31 32 33 34 35 36 37 38 38 40 41 41 42 42 43 44 44 45 45 46 46 46 47 47 48 49 49 50 51 53 54 54 54
61 60 60 59 58 57 56 54 53 51 49 46 44 44 43 42 41 40 40 38 37 36 35 33 32 30 29 28 27 26 26 26 27 27 25 23 24 25 25 25 24 25 25 26 26 27 27 27 27 27 28 29 30 31 32 34 35 36 37 37 38 39 40 40 41 41 41 42 43 43 44 44 45 46 47 47 48 49 49 50 51 52 53 53 54
61 60 59 59 58 57 56 55 53 51 49 46 44 43 43 42 41 40 39 38 37 36 35 33 32 31 29 28 27 26 25 24 25 26 25 24 23 23 24 24 24 24 25 25 26 26 27 26 26 27 27 28 29 31 32 33 34 35 36 36 37 38 39 40 40 40 41 41 41 42 43 44 45 46 47 48 49 49 49 50 50 51 52 53 53
61 60 60 59 58 57 56 55 53 51 49 46 44 43 42 42 41 40 39 38 37 35 34 33 32 31 29 28 27 26 25 24 23 24 24 24 23 22 23 24 24 24 24 25 25 26 26 26 26 26 27 28 29 30 31 32 34 35 36 36 37 37 38 39 39 40 41 41 41 41 42 43 44 46 47 48 48 49 50 50 51 51 52 52 52
62 61 60 59 58 57 56 55 53 52 49 46 44 43 42 42 41 40 40 39 37 35 34 32 31 31 29 28 26 25 25 23 22 22 23 23 22 22 22 23 23 23 24 24 24 25 26 26 26 26 27 28 28 29 30 32 33 34 35 36 36 37 37 38 39 40 40 41 42 42 42 43 44 45 46 48 48 49 50 50 51 51 52 51 51
63 61 60 59 58 57 56 54 53 52 50 47 45 43 42 42 41 40 39 39 38 36 34 32 31 30 29 27 26 25 24 23 22 21 21 22 22 21 21 21 22 22 23 23 23 24 25 26 26 26 27 27 28 29 30 31 32 34 35 35 36 36 37 38 39 39 40 41 42 42 43 43 44 45 46 47 48 49 50 51 51 51 50 49 49
63 61 60 59 58 56 55 54 53 51 50 48 46 44 43 42 41 40 39 38 37 36 34 32 31 30 29 28 26 24 24 23 22 21 21 21 21 20 20 20 20 21 21 22 23 23 24 25 26 26 26 27 28 28 29 31 32 33 34 35 36 36 37 38 39 39 40 41 41 42 43 43 44 45 46 47 48 49 50 51 51 50 49 49 49
63 62 60 59 58 56 55 53 52 51 50 49 47 45 43 42 41 40 39 38 37 36 34 32 31 29 28 27 26 24 23 22 21 21 20 20 20 19 19 19 19 19 20 21 22 22 23 24 25 26 26 27 27 28 29 30 31 33 34 35 36 36 37 38 39 39 40 41 41 42 42 43 44 45 46 47 48 49 50 50 50 49 49 49 50
62 61 60 59 57 56 54 53 51 51 50 50 48 47 45 43 42 41 39 38 37 36 34 32 31 29 28 26 25 24 23 21 21 20 19 19 19 18 18 18 18 18 19 20 21 21 22 23 25 25 26 26 27 28 28 30 31 32 34 35 36 36 37 38 39 40 40 40 41 41 42 43 44 45 46 47 48 48 49 49 49 48 49 49 49
Wind_Direction
275 275 274 274 274 273 273 273 273 272 272 272 272 271 271 271 270 270 270 270 269 269 269 269 268 268 268 268 268 268 268 268 268 268 268 268 268 268 267 267 267 266 266 265 265 264 263 263 262 261 259 258 257 256 254 253 251 250 248 247 246 245 244 243 241 238 237 238 239 239 241 241 241 241 240 240 241 241 240 238 236 235 235 236 236
276 275 275 274 274 273 273 273 273 272 272 272 272 271 271 271 271 270 270 270 269 269 269 269 268 268 268 267 267 267 267 267 267 267 267 267 267 267 267 266 266 266 265 265 265 264 263 263 262 261 260 259 258 257 255 254 252 250 249 248 246 245 245 244 243 240 238 238 238 238 239 240 241 240 240 240 239 240 241 240 239 236 235 234 235
277 276 276 275 275 274 274 273 273 273 272 272 272 271 271 271 271 270 270 270 269 269 269 268 268 268 267 267 267 267 267 267 267 266 266 266 266 266 266 266 266 266 265 265 264 264 263 263 262 261 261 260 259 257 256 255 253 251 250 249 247 246 245 244 243 242 240 239 238 238 239 240 241 241 241 241 240 239 240 240 241 239 237 235 234
278 277 277 277 276 276 275 275 274 274 274 273 273 272 272 272 271 271 270 270 270 269 269 268 268 268 267 267 267 266 266 266 266 266 266 266 265 265 265 265 265 265 264 264 264 263 263 262 262 261 260 259 258 257 256 255 254 253 251 250 248 247 246 245 244 243 242 240 239 239 239 240 240 241 241 242 241 241 240 240 240 241 240 238 235
278 278 277 277 277 277 276 276 276 275 275 275 274 274 274 273 273 272 272 271 271 270 270 269 269 268 268 267 267 267 266 266 266 265 265 265 265 265 265 264 264 264 264 263 263 263 262 262 261 261 260 259 258 257 256 256 255 254 252 251 250 249 248 247 246 244 243 242 240 240 240 240 241 241 241 242 242 242 242 241 241 241 241 241 240
278 277 277 277 277 277 276 276 276 276 275 275 275 275 274 274 274 273 273 272 272 271 271 270 269 269 268 268 268 267 267 266 266 266 265 265 265 264 264 264 264 264 263 263 263 262 262 261 261 260 260 259 259 258 257 257 256 255 254 253 252 251 249 248 247 246 244 243 242 241 240 240 241 241 242 242 242 243 243 243 242 242 241 242 242
279 278 278 277 277 277 276 276 276 275 275 275 275 274 274 274 273 273 273 272 272 271 271 270 270 269 269 268 268 267 267 266 266 265 265 265 264 264 264 263 263 263 263 263 263 262 262 261 261 261 261 260 260 259 259 258 257 256 255 254 253 252 251 250 248 247 246 245 243 242 241 241 241 241 241 242 243 243 243 244 244 243 242 242 242
281 281 280 280 279 279 278 278 277 277 276 276 275 275 274 274 274 273 273 272 272 271 271 270 270 269 269 268 268 267 267 266 266 265 265 264 264 263 263 263 263 262 262 262 262 262 261 261 261 260 260 260 259 259 259 258 257 256 255 255 254 253 252 251 250 249 248 246 245 243 242 242 242 241 241 242 242 243 243 244 244 244 243 243 242
284 283 283 282 281 281 280 280 279 279 278 277 277 276 276 275 275 274 274 273 273 272 272 271 270 270 269 269 268 268 267 267 266 265 265 264 264 263 263 263 262 262 262 261 261 261 260 260 260 260 259 259 258 258 258 257 257 256 256 255 254 253 252 251 250 250 249 248 246 245 244 243 242 242 242 242 242 242 243 243 244 244 244 244 243
287 286 285 284 284 283 282 281 281 280 279 279 278 277 276 276 275 275 274 274 273 273 272 272 271 270 270 269 269 268 267 267 266 266 265 264 264 263 263 263 262 262 262 261 261 261 260 260 260 259 259 258 258 258 257 257 257 256 255 255 254 253 253 252 251 250 249 248 247 246 245 244 243 243 242 242 242 242 243 243 243 244 244 244 244
289 289 288 287 287 286 285 284 283 282 281 281 280 279 278 277 276 276 275 274 274 273 272 272 271 270 270 269 269 268 268 267 266 266 265 264 264 263 263 263 262 262 261 261 260 260 260 260 259 259 259 258 258 257 257 256 256 256 255 255 254 253 253 252 251 250 249 248 248 247 247 246 245 244 243 242 242 242 242 243 243 243 243 244 244
292 291 291 290 289 289 288 287 286 285 284 283 282 281 280 279 279 278 277 276 275 274 274 273 272 271 270 270 269 269 268 267 267 266 265 265 264 263 262 262 262 262 261 261 260 260 260 259 259 259 258 258 258 258 257 256 256 255 255 255 254 253 252 251 251 250 249 248 247 247 247 246 246 245 244 243 243 242 242 242 243 243 243 243 243
294 294 293 292 291 290 289 288 287 287 286 285 284 283 282 281 280 279 279 278 277 276 275 274 273 273 272 271 270 269 269 268 267 267 266 265 265 264 263 263 262 262 262 261 261 260 260 260 259 259 259 258 258 257 257 256 255 254 253 253 253 253 252 251 251 250 250 249 248 247 247 246 246 246 245 244 244 243 243 243 243 243 243 243 243
296 295 295 294 293 292 291 290 289 289 288 287 286 285 284 283 282 281 280 279 278 277 276 275 275 274 273 272 271 270 269 269 268 267 267 266 265 265 264 263 262 262 261 261 260 260 259 259 259 258 258 257 257 256 256 255 254 254 253 252 252 252 253 252 251 250 250 250 249 248 247 247 246 246 246 245 244 244 243 243 243 243 243 242 242
298 298 297 296 295 294 293 292 291 290 289 288 287 286 285 285 284 283 282 280 279 278 277 277 276 275 274 273 272 271 270 269 269 268 267 267 266 266 265 264 263 262 261 260 260 260 259 259 258 257 257 256 256 256 256 255 255 254 253 253 252 251 251 251 251 250 250 249 249 248 247 247 247 246 246 246 245 244 244 243 243 243 243 242 242
300 299 298 297 296 295 294 293 292 291 290 290 289 288 287 286 285 284 283 282 280 279 278 278 277 276 275 273 272 271 270 270 269 269 268 268 267 267 266 265 264 262 261 260 260 259 259 258 258 257 256 255 255 255 255 255 255 255 254 253 252 250 249 249 250 250 249 248 248 247 247 247 247 246 246 246 246 245 244 244 244 243 243 243 242
300 300 299 298 297 296 295 294 293 292 292 291 290 289 288 288 287 285 284 283 282 281 280 279 278 277 276 275 273 272 271 271 270 269 269 269 268 267 266 265 264 263 261 260 260 259 258 258 257 256 255 255 255 255 255 255 255 254 254 253 252 251 249 248 248 248 248 247 247 247 246 246 246 246 246 246 246 245 245 244 244 243 243 242 242
301 300 300 299 298 297 296 295 294 294 293 292 291 290 289 289 288 287 286 285 283 282 281 280 279 278 277 275 274 273 273 272 272 271 271 270 269 267 266 265 264 263 262 261 260 259 258 257 257 256 255 255 255 255 255 255 254 253 253 252 251 250 249 248 247 247 247 246 245 245 246 246 245 245 245 245 245 245 244 243 243 242 242 242 241
302 301 301 300 299 298 297 296 296 295 294 293 292 291 290 289 288 287 287 285 284 283 282 281 280 279 277 276 275 274 274 273 273 273 272 271 269 268 267 266 265 264 263 262 262 260 259 258 257 257 256 255 255 255 254 253 253 252 251 251 250 249 248 247 246 246 245 245 244 244 244 245 245 244 244 244 244 244 243 243 242 242 241 241 241
304 303 303 302 300 299 298 298 297 296 295 294 292 292 291 290 289 288 287 286 284 283 282 281 280 279 278 277 276 275 275 275 274 274 272 271 270 269 267 266 265 264 263 263 261 260 259 259 259 258 257 255 255 254 254 253 252 251 251 250 249 248 247 246 245 245 245 244 243 243 243 243 244 243 243 243 243 243 242 242 241 241 240 240 240
306 306 305 303 302 301 300 299 298 297 296 294 293 292 292 291 290 289 288 286 285 284 282 281 280 279 278 277 277 277 277 276 276 275 273 272 271 269 268 266 265 264 263 262 261 261 260 260 259 258 256 254 254 254 254 253 252 251 250 249 248 247 246 246 245 245 244 244 243 242 242 242 242 242 242 241 241 241 240 240 240 239 239 239 239
308 308 306 305 304 303 302 301 300 299 297 296 295 294 293 292 290 289 288 287 286 285 284 282 281 280 279 279 278 279 278 278 277 276 275 273 272 270 268 266 265 265 264 263 262 261 260 259 258 257 255 254 253 253 253 253 251 250 249 248 247 247 246 246 245 245 244 243 242 241 241 241 241 241 240 240 239 239 239 239 239 238 238 238 238
311 310 309 307 306 305 304 303 301 300 299 298 297 296 295 294 292 291 289 288 287 286 284 283 282 281 281 281 281 281 280 279 278 277 276 274 272 271 269 268 267 266 265 264 263 262 260 259 258 257 256 254 253 253 253 252 251 249 248 248 247 247 246 245 244 244 243 243 242 241 240 240 240 240 240 239 238 238 238 238 238 238 237 237 237
313 312 311 310 309 307 306 304 303 302 300 299 298 297 297 295 294 292 291 289 288 286 285 284 283 283 283 283 283 282 281 280 279 277 276 274 273 271 270 269 269 268 267 265 263 262 261 260 259 258 257 255 254 253 252 251 250 249 248 247 247 246 245 244 243 242 242 242 241 240 239 239 239 239 239 238 238 238 238 238 238 237 237 237 237
316 315 313 312 311 310 308 307 305 304 302 301 300 299 298 297 295 294 291 289 288 287 286 286 285 284 284 284 284 283 282 280 279 277 275 274 273 272 271 271 270 268 266 264 263 262 262 261 260 259 258 256 255 254 252 251 250 249 248 247 247 245 244 243 241 241 240 240 239 239 238 238 238 238 238 238 238 237 237 237 237 237 237 236 236
318 317 316 315 314 313 311 310 309 307 305 303 302 301 300 298 296 295 292 290 288 287 286 286 286 285 285 285 285 285 283 281 280 277 275 273 272 272 272 271 270 268 265 264 263 263 262 261 260 259 257 256 255 253 252 251 250 249 247 247 246 245 243 242 241 240 239 239 238 238 237 237 238 238 238 237 237 236 236 236 236 236 236 235 234
320 319 318 317 316 315 314 313 311 310 308 306 304 303 302 300 298 296 294 292 290 288 287 287 286 285 285 285 285 285 284 283 280 278 275 273 272 272 273 272 270 267 265 265 264 262 261 261 260 258 257 256 254 253 252 250 249 248 247 246 245 244 243 242 240 240 239 239 239 238 238 238 238 238 238 237 236 235 235 235 235 235 234 233 233
322 321 319 318 317 316 315 314 313 311 310 308 306 305 304 302 300 298 295 293 292 291 289 288 288 287 286 286 285 284 284 283 281 278 275 273 273 273 273 271 269 268 267 265 263 262 261 261 259 258 256 255 254 252 251 250 248 247 246 245 244 244 242 241 240 240 239 238 238 238 238 238 238 238 237 236 235 234 234 234 234 233 233 232 232
323 322 321 320 318 317 316 315 314 313 311 310 308 307 306 305 303 301 297 295 293 293 292 291 289 288 287 287 286 285 284 283 281 278 276 274 273 273 272 270 269 268 267 264 262 262 261 260 258 257 255 254 253 252 250 248 247 246 244 244 243 242 242 241 240 239 238 237 236 236 236 235 235 235 235 235 234 233 232 232 233 232 232 231 231
324 323 322 321 320 319 318 317 316 315 313 312 310 309 307 306 305 303 301 298 296 294 293 293 292 290 289 288 287 286 285 284 282 279 276 275 275 274 271 270 269 268 265 263 262 261 260 259 257 256 254 253 252 251 250 248 246 244 243 242 242 241 240 240 239 238 237 236 235 235 234 233 233 233 233 232 232 232 231 232 232 232 231 230 230
326 325 324 323 322 321 320 319 318 317 315 314 313 311 309 308 306 304 302 300 299 297 295 294 294 293 291 289 288 287 286 285 282 278 276 275 275 274 271 270 269 268 265 263 262 261 260 259 257 255 254 253 252 251 249 247 245 243 242 241 241 241 240 239 238 237 236 235 234 233 232 231 231 231 231 231 230 230 230 230 231 231 230 229 229
327 327 326 326 325 323 322 321 320 318 317 316 314 313 312 311 309 307 304 300 300 299 297 296 295 294 293 292 290 288 286 285 283 279 275 274 273 273 272 272 270 267 264 263 262 261 259 257 256 255 253 252 251 250 248 247 245 243 241 240 240 240 239 238 237 236 235 234 233 232 231 230 230 229 230 230 229 229 229 229 229 229 228 228 228
330 329 328 328 327 325 324 322 321 320 318 317 316 315 314 313 312 311 308 304 300 299 299 298 296 294 293 292 292 291 289 286 283 280 276 273 271 271 273 273 271 267 263 262 262 260 258 256 255 253 252 251 250 248 247 245 244 242 240 239 239 239 238 237 236 234 233 232 232 231 230 229 228 228 228 228 228 228 227 227 227 227 227 227 227
332 331 330 329 328 327 325 324 323 321 320 319 318 316 316 315 314 313 312 310 305 301 299 299 299 297 295 293 292 291 290 288 284 280 277 273 271 270 271 272 270 267 264 262 260 259 257 256 254 253 251 250 248 247 245 244 243 241 239 238 238 237 237 235 234 232 231 231 231 230 229 228 227 227 227 227 227 226 226 225 225 226 226 226 227
333 332 332 331 330 329 327 326 324 323 322 321 320 318 317 316 315 314 313 312 310 307 302 298 298 298 297 296 295 293 291 288 285 281 278 275 272 271 270 270 268 265 263 261 260 259 257 256 254 252 251 249 247 246 244 243 241 240 239 237 236 236 235 234 232 231 230 230 230 229 228 226 226 226 226 226 226 225 225 224 224 225 225 225 226
335 334 333 333 331 330 329 328 326 325 324 323 322 320 319 318 317 316 315 313 312 310 308 303 299 297 296 296 297 296 294 291 287 282 278 276 274 272 271 269 266 264 262 260 259 257 256 255 254 252 250 248 246 244 243 241 240 239 237 236 235 234 233 232 231 229 228 228 228 228 227 225 224 224 224 225 225 224 224 224 224 224 225 225 225
336 335 335 334 333 332 331 330 328 327 326 325 324 323 322 321 319 318 316 315 313 312 310 308 304 301 298 296 296 296 295 294 291 286 280 276 274 273 272 270 267 263 261 259 257 256 255 253 252 250 249 247 245 243 242 240 238 237 236 235 234 233 231 230 229 227 227 226 226 226 226 224 223 223 223 223 223 223 223 223 224 224 224 225 225
337 337 336 336 335 334 333 332 331 329 328 327 326 325 324 323 322 320 318 316 315 313 312 310 308 304 301 298 297 296 295 294 292 289 284 278 275 273 272 270 267 264 261 259 257 255 254 252 250 249 247 245 244 242 240 238 237 235 234 233 232 230 229 228 227 226 226 225 225 225 224 223 221 221 222 222 222 223 223 223 223 223 224 224 225
338 338 338 337 337 336 335 334 333 332 330 328 328 327 326 325 323 322 320 318 316 314 313 312 310 308 304 301 299 297 296 294 292 289 285 281 277 273 271 269 267 264 261 259 257 255 253 251 249 247 245 244 242 240 239 237 235 234 232 231 229 228 227 226 225 225 224 224 224 223 222 221 220 220 220 221 221 221 222 222 222 223 224 224 225
339 339 339 338 338 337 337 336 335 334 332 330 329 329 328 327 325 324 322 321 319 317 315 313 312 310 307 304 301 298 296 295 292 289 285 282 279 275 271 268 266 263 260 258 256 254 251 250 248 245 243 242 241 239 237 236 234 232 231 229 227 225 224 224 224 223 223 223 223 222 221 220 219 219 219 219 220 220 220 221 221 222 223 225 225
340 340 339 339 339 338 338 337 337 336 334 332 330 330 330 329 328 326 324 323 321 319 317 315 313 312 309 306 303 300 297 295 293 290 286 281 279 276 272 268 265 261 259 257 255 253 250 249 247 245 243 241 240 238 237 235 233 231 230 228 226 224 222 222 222 222 222 221 221 221 221 220 219 218 218 218 218 219 220 220 220 221 222 223 224
341 341 340 340 339 339 338 338 338 338 337 335 333 331 331 331 329 328 326 325 323 321 319 317 315 314 311 308 305 302 299 296 293 290 286 281 279 276 273 269 265 262 259 256 254 252 250 248 246 244 242 241 239 237 236 235 232 230 229 227 225 223 221 221 221 221 220 220 220 220 220 219 218 217 217 216 217 218 219 219 220 220 221 221 221
342 342 341 340 340 339 339 339 339 339 339 337 335 333 333 332 331 330 328 327 325 324 322 320 318 316 314 311 307 304 301 297 294 291 287 282 278 276 273 269 265 262 259 257 254 252 249 247 245 243 242 240 238 237 236 234 232 230 228 226 224 222 221 220 219 219 219 219 219 218 218 218 217 216 216 216 216 217 217 218 219 219 219 219 219
343 342 341 341 341 340 340 340 340 340 339 339 337 336 334 334 333 331 330 328 327 325 324 322 320 319 316 313 310 306 303 299 295 293 289 284 279 276 273 269 265 261 258 256 254 251 248 245 243 242 240 239 238 236 235 233 231 229 227 225 223 221 220 219 218 217 217 218 218 217 217 217 216 216 215 215 215 215 216 216 217 217 218 217 217
344 343 342 342 341 341 340 340 340 340 340 340 339 338 336 335 334 333 331 329 328 327 326 324 323 321 319 316 313 309 306 302 297 294 290 286 281 276 273 270 266 261 258 255 253 251 248 245 242 240 239 238 237 235 234 233 231 229 227 224 222 220 219 217 216 215 215 215 216 216 216 215 215 215 215 215 215 215 214 214 214 215 216 216 216
345 344 344 343 342 342 341 340 340 340 341 341 341 340 338 337 336 334 332 331 330 329 328 326 325 323 321 319 316 312 308 305 300 295 291 288 283 278 274 271 267 263 259 255 252 250 247 244 241 239 237 236 235 235 233 232 230 228 226 223 221 219 217 216 215 214 213 212 213 213 214 215 215 215 215 215 215 214 213 213 213 213 214 215 215
346 345 344 344 343 342 342 341 340 340 341 342 343 342 341 339 337 336 334 332 331 331 330 329 327 325 323 321 318 314 311 307 303 297 292 289 285 280 276 273 269 265 260 256 252 249 247 243 240 237 236 235 234 233 232 231 229 227 225 222 220 218 216 214 213 212 212 211 211 211 212 213 215 216 216 215 214 213 213 212 213 213 213 214 214
346 346 345 345 344 343 342 341 341 341 341 342 344 344 343 341 339 337 335 334 333 332 332 331 330 327 325 323 321 317 313 310 306 301 295 290 287 282 278 274 271 266 261 257 252 248 245 243 240 236 234 233 233 232 231 230 228 226 224 221 218 216 215 213 212 211 211 211 211 211 211 212 214 215 216 216 215 214 212 212 212 212 212 213 213
346 346 346 345 344 344 343 342 341 341 342 343 344 345 345 342 340 338 337 335 334 333 333 333 332 330 327 325 322 320 316 312 308 303 298 293 289 285 280 276 272 267 262 258 253 249 245 242 239 236 233 232 231 231 230 229 228 225 223 220 217 215 213 212 211 211 210 210 211 211 211 213 214 214 214 215 215 214 213 212 212 211 210 210 210
347 347 346 346 345 344 344 343 342 342 343 344 345 346 346 344 342 340 338 337 336 335 335 335 333 331 329 327 324 321 318 314 310 306 301 295 291 287 282 277 273 268 263 258 253 249 245 242 239 235 232 230 229 229 228 228 226 225 222 219 216 213 212 211 211 210 210 210 211 211 212 213 213 214 214 214 214 214 213 212 211 210 210 209 209
348 347 347 347 346 345 345 344 344 344 344 345 345 346 346 345 343 341 339 338 337 336 336 336 335 333 331 328 325 323 320 317 312 307 303 298 293 289 284 278 273 269 263 258 254 249 245 241 238 235 231 228 227 227 227 226 225 223 221 218 215 212 211 210 210 210 210 210 210 211 212 213 213 213 213 213 213 213 213 212 211 210 209 209 208